Home > Weather > Mataram > Past weeks

Flag for Indonesia Weather for the Past 2 Weeks in Mataram, West Nusa Tenggara, Indonesia

Now
81 °F

Passing clouds.


Feels Like: 85 °F
Forecast: 76 / 85 °F
Wind: 6 mph from Northwest

Location: Juanda International Airport

Current Time: Feb 12, 2016 at 10:24:44 AM

Latest Report: Feb 12, 2016 at 9:30 AM


Visibility: 5 mi

Pressure: 29.86 "Hg

Humidity: 79%

Dew point: 73 °F

Location of MataramLocation

Historic Weather in Mataram — Graph

°F

Mataram Temperature Yesterday

Maximum temperature yesterday: 86 °F (at 11:30 AM)
Minimum temperature yesterday: 75 °F (at 8:00 PM)
Average temperature yesterday: 80 °F

High & Low Weather Summary for the Past Weeks

 TemperatureHumidityPressure
High95 °F (Jan 29, 2:30 PM)100% (Feb 6, 12:00 AM)29.89 "Hg (Feb 6, 12:00 AM)
Low75 °F (Feb 6, 6:00 AM)46% (Jan 28, 3:00 PM)29.68 "Hg (Jan 31, 3:00 PM)
Average82 °F82%29.78 "Hg
* Reported Jan 28 9:00 AM — Feb 12 9:00 AM, Mataram, Weather by CustomWeather, © 2016

Note: Actual official high and low records may vary slightly from our data, if they occured in-between our weather recording intervals... More about our weather records

Advertising

Mataram Weather History for the Previous 24 Hours

 ConditionsComfort  
Time TempWeatherWind HumidityBarometerVisibility
9:00 AM
Fri, Feb 12
79 °FPassing clouds.7 mph84%29.86 "Hg5 mi
8:30 AM79 °FPassing clouds.6 mph84%29.86 "Hg5 mi
8:00 AM77 °FPassing clouds.5 mph94%29.86 "Hg4 mi
7:30 AM77 °FPassing clouds.6 mph100%29.83 "Hg4 mi
7:00 AM77 °FScattered clouds.7 mph100%29.83 "Hg4 mi
6:30 AM77 °FPassing clouds.5 mph94%29.83 "Hg4 mi
6:00 AM77 °FPassing clouds.6 mph94%29.80 "Hg3 mi
5:00 AM77 °FPassing clouds.6 mph94%29.80 "Hg3 mi
4:30 AM77 °FPassing clouds.7 mph94%29.80 "Hg3 mi
4:00 AM79 °FHaze.7 mph94%29.80 "Hg3 mi
3:30 AM77 °FPassing clouds.8 mph94%29.80 "Hg3 mi
3:00 AM77 °FPassing clouds.8 mph94%29.80 "Hg3 mi
12:30 AM77 °FRain. Passing clouds.5 mph94%29.83 "Hg3 mi
12:00 AM77 °FRain. Passing clouds.6 mph94%29.86 "Hg3 mi
11:00 PM
Thu, Feb 11
77 °FRain. Passing clouds.6 mph100%29.86 "Hg3 mi
10:30 PM77 °FRain. Passing clouds.7 mph100%29.86 "Hg4 mi
10:00 PM77 °FRain. Passing clouds.6 mph100%29.86 "Hg4 mi
9:00 PM77 °FRain. Passing clouds.6 mph94%29.86 "Hg4 mi
8:30 PM77 °FRain. Passing clouds.8 mph94%29.86 "Hg4 mi
8:00 PM75 °FRain. Passing clouds.10 mph100%29.86 "Hg4 mi
7:30 PM77 °FRain. Passing clouds.10 mph94%29.83 "Hg3 mi
7:00 PM77 °FRain. Passing clouds.12 mph94%29.83 "Hg3 mi
6:30 PM77 °FRain. Scattered clouds.12 mph89%29.80 "Hg1 mi
6:00 PM79 °FScattered clouds.10 mph84%29.80 "Hg5 mi
5:30 PM79 °FScattered clouds.8 mph84%29.77 "Hg6 mi
4:30 PM84 °FScattered clouds.10 mph70%29.74 "HgN/A
4:00 PM84 °FScattered clouds.12 mph70%29.74 "HgN/A
3:30 PM84 °FScattered clouds.13 mph70%29.74 "HgN/A
3:00 PM84 °FThundershowers. Scattered clouds.13 mph70%29.74 "HgN/A
2:30 PM86 °FThundershowers. Scattered clouds.13 mph66%29.74 "HgN/A
2:00 PM86 °FScattered clouds.12 mph70%29.74 "HgN/A
1:30 PM86 °FScattered clouds.10 mph70%29.74 "HgN/A
1:00 PM86 °FScattered clouds.14 mph70%29.77 "HgN/A
12:30 PM86 °FScattered clouds.14 mph66%29.77 "HgN/A
12:00 PM86 °FScattered clouds.14 mph70%29.80 "HgN/A
11:30 AM86 °FScattered clouds.12 mph70%29.80 "HgN/A
11:00 AM84 °FPassing clouds.9 mph74%29.80 "HgN/A
10:00 AM82 °FPassing clouds.8 mph84%29.83 "Hg4 mi
Weather by CustomWeather, © 2016

See weather overviewHow to use our weather pages